Flag for Germany Weather past 2 weeks in Cloppenburg, Lower Saxony, Germany

Now
66 °F

Partly sunny.


Feels Like: 66 °F
Forecast: 52 / 73 °F
Wind: 12 mph from Southwest

Location: Meppen-Mil

Current Time: May 4, 2015 at 4:12:49 PM

Latest Report: May 4, 2015 at 3:20 PM


Visibility: N/A

Pressure: 29.77 "Hg

Humidity: 49%

Dew point: 46 °F

Location of CloppenburgLocation

Historic Weather in Cloppenburg — Graph

°F

Cloppenburg temperature yesterday

Maximum temperature yesterday: 64 °F (at 12:20 PM)
Minimum temperature yesterday: 41 °F (at 4:20 AM)
Average temperature yesterday: 54 °F

Past Weeks' High & Low Weather Summary

 TemperatureHumidityPressure
High68 °F (Apr 24, 3:20 PM)100% (Apr 24, 5:20 AM)30.48 "Hg (Apr 24, 5:20 AM)
Low27 °F (Apr 28, 5:20 AM)27% (May 2, 5:20 PM)29.53 "Hg (May 3, 4:20 PM)
Average49 °F70%29.96 "Hg
* Reported Apr 19 2:20 PM — May 4 2:20 PM, Cloppenburg, Weather by CustomWeather, © 2015

Note: Actual official high and low records may vary slightly from our data, if they occured in-between our weather recording intervals... More about our weather records

Advertising

Cloppenburg weather history for previous 24 hours

 ConditionsComfort  
Time TempWeatherWind HumidityBarometerVisibility
2:20 PM
Mon, May 4
64 °FPartly sunny.9 mph56%29.77 "HgN/A
1:20 PM63 °FPartly sunny.13 mph59%29.77 "HgN/A
12:20 PM61 °FPartly sunny.12 mph68%29.77 "HgN/A
11:20 AM61 °FBroken clouds.15 mph63%29.74 "HgN/A
10:20 AM61 °FPartly sunny.15 mph63%29.74 "HgN/A
9:20 AM59 °FScattered clouds.12 mph72%29.71 "HgN/A
8:20 AM57 °FPassing clouds.12 mph77%29.68 "HgN/A
7:20 AM54 °FPassing clouds.10 mph82%29.68 "HgN/A
6:20 AM52 °FPassing clouds.9 mph88%29.65 "HgN/A
5:20 AM54 °FCool.8 mph77%29.65 "HgN/A
4:20 AM54 °FCool.8 mph77%29.62 "HgN/A
3:20 AM55 °FCool.10 mph77%29.62 "HgN/A
2:20 AM55 °FCool.9 mph77%29.59 "HgN/A
1:20 AM55 °FCool.9 mph82%29.59 "HgN/A
12:20 AM57 °FCool.9 mph82%29.59 "HgN/A
11:20 PM
Sun, May 3
59 °FCool.12 mph82%29.56 "Hg6 mi
10:20 PM59 °FCool.9 mph94%29.56 "Hg5 mi
9:20 PM59 °FCool.7 mph94%29.53 "Hg5 mi
8:20 PM59 °FCool.8 mph88%29.53 "Hg2 mi
7:20 PM57 °FCool.7 mph94%29.53 "Hg3 mi
6:20 PM57 °FCool.8 mph88%29.53 "Hg2 mi
5:20 PM59 °FCool.12 mph82%29.53 "Hg2 mi
4:20 PM64 °FMild.9 mph56%29.53 "HgN/A
Weather by CustomWeather, © 2015

See weather overviewHow to use our weather pages